Zurück zum Katalog

STARLINK-38267

AktivKommunikationSSO
NORAD 100301·PAYLOAD·🇺🇸 United States

Gestartet Aug 12, 2026 von Vandenberg Space Force Base

Loading…

Nächste Überflüge (nächste 24 Stunden)

TLE

AktuellSource: Space-Track

Epoche: Sep 14, 2026, 22:46 UTC

1 A0301U 26184A   26257.94909856  .00021937  00000-0  60754-3 0  9994
2 A0301  97.2836 123.2055 0002431  86.9692 273.1830 15.36986537  6518

Verfolge STARLINK-38267 in Echtzeit mit AllMySat

Download on the App Store